EW3948 Weather Reports


Display with metric or nautical units.
time (UTC)temp
F
wind
direction
speed
MPH
gust
MPH
rain 1hr
in
rain 24hr
in
rain mn
in
humidity
%
barometer
mb
20260508173013 68 0.0 0.0 0.00 0.00 0.00 41 1014.5
20260508172510 68 0.0 0.0 0.00 0.00 0.00 41 1014.6
20260508172007 68 0.0 0.0 0.00 0.00 0.00 43 1014.6
20260508171517 68 0.0 0.0 0.00 0.00 0.00 45 1014.7
20260508171014 67 0.0 0.0 0.00 0.00 0.00 39 1014.8
20260508170504 67 0.0 0.0 0.00 0.00 0.00 39 1014.9
20260508170015 67 0.0 0.0 0.00 0.00 0.00 41 1015.0
20260508165504 68 0.0 0.0 0.00 0.00 0.00 42 1015.1
20260508165005 67 0.0 0.0 0.00 0.00 0.00 41 1015.1
20260508164519 66 0.0 0.0 0.00 0.00 0.00 43 1015.1
20260508164008 67 0.0 0.0 0.00 0.00 0.00 41 1015.3
20260508163504 67 0.0 0.0 0.00 0.00 0.00 40 1015.3
20260508163010 67 0.0 0.0 0.00 0.00 0.00 39 1015.4
20260508162507 67 0.0 0.0 0.00 0.00 0.00 39 1015.4
20260508162005 67 0.0 0.0 0.00 0.00 0.00 43 1015.5
20260508161511 66 0.0 0.0 0.00 0.00 0.00 45 1015.8
20260508161005 66 0.0 0.0 0.00 0.00 0.00 42 1015.8
20260508160506 66 0.0 0.0 0.00 0.00 0.00 40 1015.9
20260508160006 66 0.0 0.0 0.00 0.00 0.00 45 1016.0
20260508155502 66 0.0 0.0 0.00 0.00 0.00 45 1016.2
20260508155006 66 0.0 0.0 0.00 0.00 0.00 44 1016.1
20260508154503 65 0.0 0.0 0.00 0.00 0.00 45 1016.2
20260508154001 64 0.0 0.0 0.00 0.00 0.00 43 1016.3
20260508153502 64 0.0 0.0 0.00 0.00 0.00 45 1016.4
20260508153011 64 0.0 0.0 0.00 0.00 0.00 46 1016.4
20260508152502 64 0.0 0.0 0.00 0.00 0.00 44 1016.4
20260508152008 64 0.0 0.0 0.00 0.00 0.00 48 1016.3
20260508151523 63 0.0 0.0 0.00 0.00 0.00 48 1016.3
20260508151010 63 0.0 0.0 0.00 0.00 0.00 46 1016.3
20260508150502 62 0.0 0.0 0.00 0.00 0.00 44 1016.4
20260508150016 62 0.0 0.0 0.00 0.00 0.00 49 1016.3
20260508145507 61 0.0 0.0 0.00 0.00 0.00 50 1016.3
20260508145003 60 0.0 0.0 0.00 0.00 0.00 52 1016.3
20260508144510 60 0.0 0.0 0.00 0.00 0.00 52 1016.3
20260508144005 60 0.0 0.0 0.00 0.00 0.00 55 1016.3
20260508143503 59 0.0 0.0 0.00 0.00 0.00 53 1016.3
20260508143006 58 0.0 0.0 0.00 0.00 0.00 59 1016.4
20260508142502 58 0.0 0.0 0.00 0.00 0.00 57 1016.3
20260508142002 57 0.0 0.0 0.00 0.00 0.00 59 1016.4
20260508141512 57 0.0 0.0 0.00 0.00 0.00 61 1016.4
20260508141003 56 0.0 0.0 0.00 0.00 0.00 62 1016.5
20260508140510 54 0.0 0.0 0.00 0.00 0.00 64 1016.6
20260508140015 53 0.0 0.0 0.00 0.00 0.00 67 1016.6
20260508135503 52 0.0 0.0 0.00 0.00 0.00 70 1016.6
20260508135006 51 0.0 0.0 0.00 0.00 0.00 71 1016.6
20260508134520 50 0.0 0.0 0.00 0.00 0.00 73 1016.6
20260508134008 49 0.0 0.0 0.00 0.00 0.00 75 1016.6
20260508133502 48 0.0 0.0 0.00 0.00 0.00 79 1016.6
20260508133014 48 0.0 0.0 0.00 0.00 0.00 79 1016.6
20260508132505 47 0.0 0.0 0.00 0.00 0.00 80 1016.6
20260508132002 46 0.0 0.0 0.00 0.00 0.00 81 1016.6
20260508131506 45 0.0 0.0 0.00 0.00 0.00 84 1016.7
20260508131003 44 0.0 0.0 0.00 0.00 0.00 87 1016.6
20260508130503 44 0.0 0.0 0.00 0.00 0.00 89 1016.7
20260508130012 43 0.0 0.0 0.00 0.00 0.00 90 1016.7
20260508125506 42 0.0 0.0 0.00 0.00 0.00 91 1016.7
20260508125003 42 0.0 0.0 0.00 0.00 0.00 92 1016.7
20260508124508 41 0.0 0.0 0.00 0.00 0.00 92 1016.8
20260508124005 40 0.0 0.0 0.00 0.00 0.00 92 1016.8
20260508123506 40 0.0 0.0 0.00 0.00 0.00 93 1016.9
20260508123024 39 0.0 0.0 0.00 0.00 0.00 93 1016.8
20260508122505 39 0.0 0.0 0.00 0.00 0.00 93 1016.8
20260508122007 38 0.0 0.0 0.00 0.00 0.00 93 1016.8
20260508121526 38 0.0 0.0 0.00 0.00 0.00 92 1016.8
20260508121009 37 0.0 0.0 0.00 0.00 0.00 92 1016.8
20260508120505 37 0.0 0.0 0.00 0.00 0.00 92 1016.7
20260508120011 36 0.0 0.0 0.00 0.00 0.00 92 1016.7
20260508115503 36 0.0 0.0 0.00 0.00 0.00 92 1016.7
20260508115002 35 0.0 0.0 0.00 0.00 0.00 92 1016.6
20260508114513 35 0.0 0.0 0.00 0.00 0.00 91 1016.6
20260508114006 35 0.0 0.0 0.00 0.00 0.00 91 1016.5
20260508113507 35 0.0 0.0 0.00 0.00 0.00 91 1016.5
20260508113016 35 0.0 0.0 0.00 0.00 0.00 91 1016.5
20260508112508 35 0.0 0.0 0.00 0.00 0.00 90 1016.5
20260508112008 35 0.0 0.0 0.00 0.00 0.00 90 1016.5
20260508111510 35 0.0 0.0 0.00 0.00 0.00 90 1016.4
20260508111008 35 0.0 0.0 0.00 0.00 0.00 90 1016.4
20260508110508 35 0.0 0.0 0.00 0.00 0.00 90 1016.4
20260508110025 35 0.0 0.0 0.00 0.00 0.00 90 1016.4
20260508105506 35 0.0 0.0 0.00 0.00 0.00 90 1016.3
20260508105007 35 0.0 0.0 0.00 0.00 0.00 90 1016.2
20260508104511 35 0.0 0.0 0.00 0.00 0.00 90 1016.2
20260508104003 35 0.0 0.0 0.00 0.00 0.00 90 1016.2
20260508103506 35 0.0 0.0 0.00 0.00 0.00 90 1016.2
20260508103015 35 0.0 0.0 0.00 0.00 0.00 90 1016.2
20260508102508 35 0.0 0.0 0.00 0.00 0.00 90 1016.2
20260508102004 35 0.0 0.0 0.00 0.00 0.00 90 1016.2
20260508101522 35 0.0 0.0 0.00 0.00 0.00 90 1016.1
20260508101010 35 0.0 0.0 0.00 0.00 0.00 90 1016.1
20260508100507 35 0.0 0.0 0.00 0.00 0.00 90 1016.0
20260508100017 35 0.0 0.0 0.00 0.00 0.00 89 1015.9
20260508095507 35 0.0 0.0 0.00 0.00 0.00 89 1015.9
20260508095010 35 0.0 0.0 0.00 0.00 0.00 89 1015.8
20260508094511 35 0.0 0.0 0.00 0.00 0.00 90 1015.8
20260508092507 36 0.0 0.0 0.00 0.00 0.00 89 1015.9
20260508092006 36 0.0 0.0 0.00 0.00 0.00 89 1015.9
20260508091528 36 0.0 0.0 0.00 0.00 0.00 89 1016.0
20260508091006 36 0.0 0.0 0.00 0.00 0.00 89 1016.0
20260508090506 36 0.0 0.0 0.00 0.00 0.00 89 1016.0
20260508090021 36 0.0 0.0 0.00 0.00 0.00 89 1016.0
20260508085505 36 0.0 0.0 0.00 0.00 0.00 89 1016.0
20260508085010 36 0.0 0.0 0.00 0.00 0.00 89 1015.9
20260508084522 36 0.0 0.0 0.00 0.00 0.00 89 1015.8
20260508084007 36 0.0 0.0 0.00 0.00 0.00 89 1015.8
20260508083509 36 0.0 0.0 0.00 0.00 0.00 89 1015.8
20260508083029 36 0.0 0.0 0.00 0.00 0.00 89 1015.7
20260508082508 36 0.0 0.0 0.00 0.00 0.00 89 1015.7
20260508082012 36 0.0 0.0 0.00 0.00 0.00 89 1015.7
20260508081516 36 0.0 0.0 0.00 0.00 0.00 89 1015.6
20260508081006 37 0.0 0.0 0.00 0.00 0.00 88 1015.7
20260508080506 37 0.0 0.0 0.00 0.00 0.00 88 1015.7
20260508080017 37 0.0 0.0 0.00 0.00 0.00 88 1015.7
20260508075509 37 0.0 0.0 0.00 0.00 0.00 88 1015.7
20260508075010 37 0.0 0.0 0.00 0.00 0.00 88 1015.7
20260508074522 37 0.0 0.0 0.00 0.00 0.00 88 1015.7
20260508074009 37 0.0 0.0 0.00 0.00 0.00 88 1015.7
20260508073510 37 0.0 0.0 0.00 0.00 0.00 88 1015.8
20260508073028 37 0.0 0.0 0.00 0.00 0.00 88 1015.7
20260508072513 37 0.0 0.0 0.00 0.00 0.00 88 1015.8
20260508072006 38 0.0 0.0 0.00 0.00 0.00 88 1015.8
20260508071504 38 0.0 0.0 0.00 0.00 0.00 88 1015.8
20260508071003 38 0.0 0.0 0.00 0.00 0.00 88 1015.8
20260508070507 38 0.0 0.0 0.00 0.00 0.00 88 1015.9
20260508070015 38 0.0 0.0 0.00 0.00 0.00 88 1015.9
20260508065506 38 0.0 0.0 0.00 0.00 0.00 87 1015.9
20260508065005 38 0.0 0.0 0.00 0.00 0.00 87 1015.9
20260508064522 38 0.0 0.0 0.00 0.00 0.00 87 1015.9
20260508064003 38 0.0 0.0 0.00 0.00 0.00 87 1015.9
20260508063501 38 0.0 0.0 0.00 0.00 0.00 86 1015.9
20260508063003 38 0.0 0.0 0.00 0.00 0.00 86 1015.9
20260508062504 39 0.0 0.0 0.00 0.00 0.00 86 1015.9
20260508062005 39 0.0 0.0 0.00 0.00 0.00 86 1015.9
20260508061505 39 0.0 0.0 0.00 0.00 0.00 87 1015.9
20260508061004 39 0.0 0.0 0.00 0.00 0.00 86 1015.9
20260508060502 39 0.0 0.0 0.00 0.00 0.00 86 1015.9
20260508060010 39 0.0 0.0 0.00 0.00 0.00 86 1015.9
20260508055503 39 0.0 0.0 0.00 0.00 0.00 86 1015.9
20260508055003 39 0.0 0.0 0.00 0.00 0.00 86 1015.9
20260508054508 40 0.0 0.0 0.00 0.00 0.00 86 1015.9
20260508054005 40 0.0 0.0 0.00 0.00 0.00 86 1016.0
20260508053508 40 0.0 0.0 0.00 0.00 0.00 85 1016.0
20260508053031 40 0.0 0.0 0.00 0.00 0.00 86 1015.9
20260508052503 40 0.0 0.0 0.00 0.00 0.00 85 1015.9
20260508052009 40 0.0 0.0 0.00 0.00 0.00 85 1015.9
20260508051505 40 0.0 0.0 0.00 0.00 0.00 85 1015.9
20260508051003 40 0.0 0.0 0.00 0.00 0.00 85 1015.9
20260508050503 40 0.0 0.0 0.00 0.00 0.00 84 1015.9
20260508050012 41 0.0 0.0 0.00 0.00 0.00 83 1015.9
20260508045502 41 0.0 0.0 0.00 0.00 0.00 83 1015.9
20260508045003 41 0.0 0.0 0.00 0.00 0.00 83 1015.9
20260508044514 41 0.0 0.0 0.00 0.00 0.00 82 1015.9
20260508044004 41 0.0 0.0 0.00 0.00 0.00 82 1015.9
20260508043503 41 0.0 0.0 0.00 0.00 0.00 82 1015.9
20260508043012 41 0.0 0.0 0.00 0.00 0.00 82 1016.0
20260508042504 42 0.0 0.0 0.00 0.00 0.00 81 1015.9
20260508042011 42 0.0 0.0 0.00 0.00 0.00 81 1015.9
20260508041513 42 0.0 0.0 0.00 0.00 0.00 80 1015.9
20260508041003 42 0.0 0.0 0.00 0.00 0.00 80 1016.0
20260508040508 42 0.0 0.0 0.00 0.00 0.00 79 1016.0
20260508040008 43 0.0 0.0 0.00 0.00 0.00 80 1016.0
20260508035503 43 0.0 0.0 0.00 0.00 0.00 79 1016.1
20260508035004 43 0.0 0.0 0.00 0.00 0.00 79 1016.0
20260508034516 43 0.0 0.0 0.00 0.00 0.00 79 1016.0
20260508034003 43 0.0 0.0 0.00 0.00 0.00 78 1016.0
20260508033503 43 0.0 0.0 0.00 0.00 0.00 78 1015.9
20260508033023 44 0.0 0.0 0.00 0.00 0.00 78 1015.9
20260508032504 44 0.0 0.0 0.00 0.00 0.00 78 1016.0
20260508032006 44 0.0 0.0 0.00 0.00 0.00 76 1016.0
20260508031520 44 0.0 0.0 0.00 0.00 0.00 76 1016.0
20260508031007 45 0.0 0.0 0.00 0.00 0.00 76 1016.0
20260508030503 45 0.0 0.0 0.00 0.00 0.00 76 1016.0
20260508030018 45 0.0 0.0 0.00 0.00 0.00 75 1015.9
20260508025508 45 0.0 0.0 0.00 0.00 0.00 74 1016.0
20260508025007 45 0.0 0.0 0.00 0.00 0.00 74 1015.9
20260508024519 46 0.0 0.0 0.00 0.00 0.00 73 1015.9
20260508024003 46 0.0 0.0 0.00 0.00 0.00 73 1015.9
20260508023503 46 0.0 0.0 0.00 0.00 0.00 72 1015.9
20260508023015 46 0.0 0.0 0.00 0.00 0.00 71 1015.8
20260508022507 47 0.0 0.0 0.00 0.00 0.00 71 1015.8
20260508022004 47 0.0 0.0 0.00 0.00 0.00 68 1015.7
20260508021527 48 0.0 0.0 0.00 0.00 0.00 68 1015.6
20260508021008 48 0.0 0.0 0.00 0.00 0.00 68 1015.5
20260508020507 48 0.0 0.0 0.00 0.00 0.00 67 1015.4
20260508020021 49 0.0 0.0 0.00 0.00 0.00 66 1015.4
20260508015507 49 0.0 0.0 0.00 0.00 0.00 65 1015.3
20260508015004 50 0.0 0.0 0.00 0.00 0.00 63 1015.3
20260508014521 50 0.0 0.0 0.00 0.00 0.00 64 1015.3
20260508014009 50 0.0 0.0 0.00 0.00 0.00 63 1015.2
20260508013504 51 0.0 0.0 0.00 0.00 0.00 61 1015.2
20260508013017 51 0.0 0.0 0.00 0.00 0.00 60 1015.1
20260508012503 51 0.0 0.0 0.00 0.00 0.00 60 1015.0
20260508012005 52 0.0 0.0 0.00 0.00 0.00 57 1014.9
20260508011513 52 0.0 0.0 0.00 0.00 0.00 57 1014.9
20260508011004 52 0.0 0.0 0.00 0.00 0.00 57 1014.8
20260508010505 53 0.0 0.0 0.00 0.00 0.00 55 1014.7
20260508010032 53 0.0 0.0 0.00 0.00 0.00 54 1014.6
20260508005505 53 0.0 0.0 0.00 0.00 0.00 53 1014.6
20260508005008 53 0.0 0.0 0.00 0.00 0.00 54 1014.5
20260508004522 54 0.0 0.0 0.00 0.00 0.00 52 1014.5
20260508004006 54 0.0 0.0 0.00 0.00 0.00 51 1014.5
20260508003506 54 0.0 0.0 0.00 0.00 0.00 53 1014.4
20260508003025 55 0.0 0.0 0.00 0.00 0.00 51 1014.5
20260508002509 55 0.0 0.0 0.00 0.00 0.00 50 1014.5
20260508002004 55 0.0 0.0 0.00 0.00 0.00 49 1014.5
20260508001522 56 0.0 0.0 0.00 0.00 0.00 49 1014.4
20260508001004 56 0.0 0.0 0.00 0.00 0.00 48 1014.4
20260508000504 56 0.0 0.0 0.00 0.00 0.00 49 1014.3
20260508000015 56 0.0 0.0 0.00 0.00 0.00 50 1014.3
20260507235509 57 0.0 0.0 0.00 0.00 0.00 47 1014.2
20260507235007 57 0.0 0.0 0.00 0.00 0.00 47 1014.2
20260507234518 57 0.0 0.0 0.00 0.00 0.00 46 1014.2
20260507234008 57 0.0 0.0 0.00 0.00 0.00 44 1014.1
20260507233506 58 0.0 0.0 0.00 0.00 0.00 44 1014.1
20260507233015 58 0.0 0.0 0.00 0.00 0.00 44 1014.0
20260507232507 58 0.0 0.0 0.00 0.00 0.00 44 1014.1
20260507232013 58 0.0 0.0 0.00 0.00 0.00 47 1014.0
20260507231530 59 0.0 0.0 0.00 0.00 0.00 42 1014.0
20260507231004 59 0.0 0.0 0.00 0.00 0.00 42 1013.9
20260507230507 59 0.0 0.0 0.00 0.00 0.00 41 1013.9
20260507230045 60 0.0 0.0 0.00 0.00 0.00 39 1013.9
20260507225508 60 0.0 0.0 0.00 0.00 0.00 42 1013.9
20260507225005 60 0.0 0.0 0.00 0.00 0.00 40 1013.9
20260507224519 61 0.0 0.0 0.00 0.00 0.00 41 1013.9
20260507224006 61 0.0 0.0 0.00 0.00 0.00 39 1013.9
20260507223507 61 0.0 0.0 0.00 0.00 0.00 35 1013.9
20260507223040 61 0.0 0.0 0.00 0.00 0.00 36 1013.8
20260507222506 61 0.0 0.0 0.00 0.00 0.00 37 1013.9
20260507222007 61 0.0 0.0 0.00 0.00 0.00 40 1013.8
20260507221520 62 0.0 0.0 0.00 0.00 0.00 35 1013.8
20260507221009 62 0.0 0.0 0.00 0.00 0.00 37 1013.8
20260507220508 62 0.0 0.0 0.00 0.00 0.00 36 1013.9
20260507220017 63 0.0 0.0 0.00 0.00 0.00 38 1013.7
20260507215509 63 0.0 0.0 0.00 0.00 0.00 34 1013.7
20260507215009 63 0.0 0.0 0.00 0.00 0.00 39 1013.6
20260507214530 63 0.0 0.0 0.00 0.00 0.00 33 1013.6
20260507214005 63 0.0 0.0 0.00 0.00 0.00 36 1013.5
20260507213506 63 0.0 0.0 0.00 0.00 0.00 40 1013.4
20260507213020 63 0.0 0.0 0.00 0.00 0.00 42 1013.5
20260507212506 63 0.0 0.0 0.00 0.00 0.00 37 1013.5
20260507212010 63 0.0 0.0 0.00 0.00 0.00 36 1013.4
20260507211524 63 0.0 0.0 0.00 0.00 0.00 39 1013.5
20260507211006 63 0.0 0.0 0.00 0.00 0.00 33 1013.5
20260507210507 63 0.0 0.0 0.00 0.00 0.00 34 1013.4
20260507210035 63 0.0 0.0 0.00 0.00 0.00 36 1013.5
20260507205507 63 0.0 0.0 0.00 0.00 0.00 40 1013.5
20260507205012 63 0.0 0.0 0.00 0.00 0.00 37 1013.4
20260507204525 63 0.0 0.0 0.00 0.00 0.00 31 1013.4
20260507204008 63 0.0 0.0 0.00 0.00 0.00 39 1013.3
20260507203512 63 0.0 0.0 0.00 0.00 0.00 37 1013.2
20260507203032 63 0.0 0.0 0.00 0.00 0.00 37 1013.2
20260507202505 63 0.0 0.0 0.00 0.00 0.00 38 1013.1
20260507202009 63 0.0 0.0 0.00 0.00 0.00 36 1013.3
20260507201521 63 0.0 0.0 0.00 0.00 0.00 38 1013.3
20260507201011 63 0.0 0.0 0.00 0.00 0.00 37 1013.3
20260507200507 64 0.0 0.0 0.00 0.00 0.00 41 1013.3
20260507200046 64 0.0 0.0 0.00 0.00 0.00 36 1013.4
20260507195506 64 0.0 0.0 0.00 0.00 0.00 37 1013.4
20260507195011 63 0.0 0.0 0.00 0.00 0.00 41 1013.3
20260507194528 63 0.0 0.0 0.00 0.00 0.00 42 1013.3
20260507194008 63 0.0 0.0 0.00 0.00 0.00 36 1013.4
20260507193508 63 0.0 0.0 0.00 0.00 0.00 38 1013.4
20260507193040 63 0.0 0.0 0.00 0.00 0.00 39 1013.5
20260507192510 64 0.0 0.0 0.00 0.00 0.00 35 1013.4
20260507192009 64 0.0 0.0 0.00 0.00 0.00 41 1013.4
20260507191526 63 0.0 0.0 0.00 0.00 0.00 40 1013.4
20260507191009 63 0.0 0.0 0.00 0.00 0.00 38 1013.5
20260507190507 64 0.0 0.0 0.00 0.00 0.00 39 1013.5
20260507190032 64 0.0 0.0 0.00 0.00 0.00 43 1013.5
20260507185506 64 0.0 0.0 0.00 0.00 0.00 47 1013.5
20260507185003 64 0.0 0.0 0.00 0.00 0.00 45 1013.5
20260507184509 63 0.0 0.0 0.00 0.00 0.00 44 1013.6
20260507184002 63 0.0 0.0 0.00 0.00 0.00 41 1013.6
20260507183503 62 0.0 0.0 0.00 0.00 0.00 42 1013.7
20260507183012 62 0.0 0.0 0.00 0.00 0.00 45 1013.6
20260507182506 62 0.0 0.0 0.00 0.00 0.00 42 1013.6
20260507182003 62 0.0 0.0 0.00 0.00 0.00 45 1013.5
20260507181516 62 0.0 0.0 0.00 0.00 0.00 42 1013.6
20260507181011 62 0.0 0.0 0.00 0.00 0.00 44 1013.7
20260507180507 61 0.0 0.0 0.00 0.00 0.00 49 1013.8
20260507180015 62 0.0 0.0 0.00 0.00 0.00 44 1013.9
20260507175507 63 0.0 0.0 0.00 0.00 0.00 44 1013.9
20260507175009 63 0.0 0.0 0.00 0.00 0.00 45 1013.9
20260507174508 63 0.0 0.0 0.00 0.00 0.00 45 1013.9
20260507174003 62 0.0 0.0 0.00 0.00 0.00 49 1014.0
20260507173503 62 0.0 0.0 0.00 0.00 0.00 48 1014.0